User: anonymous   Login
Location: Owatonna
(44.0840°N, 93.2260°W)
Time: 10:07:35
(UTC-05:00)
Language:

Cosmos 839 Rocket - Orbit

View from above orbital plane
View from above orbital plane
View from above satellite
View from above satellite

Ground track
Ground track

The orbit data is extracted from the following two-line orbital elements,

1 09013U 76067B   16272.89686602 -.00000042  00000-0  42613-4 0  9999
2 09013  65.8637 153.6352 0714615 176.1775 266.6925 12.35326983814374
Epoch (UTC): 28 September 2016 21:31:29
Eccentricity: 0.0714615
inclination: 65.8637°
perigee height: 961 km
apogee height: 2091 km
right ascension of ascending node: 153.6352°
argument of perigee: 176.1775°
revolutions per day: 12.35326983
mean anomaly at epoch: 266.6925°
orbit number at epoch: 81437

The dashed part of the orbit path shows where the satellite is in the earth's shadow,  

DLR